Regional Weather Roundup
Issued by NWS

Home | Current Version | Previous Version | Text Only | Print | Product List | Glossary Off
Versions: 1 2 3 4 5 6 7 8 9 10 11 12 13 14 15 16 17 18 19 20 21 22 23 24 25 26 27 28 29 30 31 32 33 34 35 36 37 38 39 40 41 42 43 44 45 46 47 48 49 50

000
ASUS43 KDTX 291701
RWRMI
MICHIGAN HOURLY REGIONAL WEATHER ROUNDUP
NATIONAL WEATHER SERVICE DETROIT/PONTIAC MI
100 PM EDT SUN MAY 29 2016

NOTE: "FAIR" INDICATES FEW OR NO CLOUDS BELOW 12,000 FEET WITH NO
SIGNIFICANT WEATHER AND/OR OBSTRUCTION TO VISIBILITY.

MIZ047>049-052>055-059>063-066>070-074>076-081>083-291800-
SOUTHEAST LOWER MICHIGAN

CITY           SKY/WX    TMP DP  RH WIND       PRES   REMARKS
ADRIAN         MOSUNNY   84  63  49 SW18G24   30.03F
ALMA           PTSUNNY   78  60  53 MISG      29.98S
ANN ARBOR      MOSUNNY   81  63  54 S12       30.02F
BAD AXE        PTSUNNY   80  59  47 SW15G21   29.98S
CARO           MOSUNNY   83  63  51 S12G18    29.97F
DETROIT CITY   PTSUNNY   82  65  56 SW13      30.02F
DETROIT        CLOUDY    81  64  56 SW12      30.03F
FLINT          SUNNY     85  63  47 S16G23    29.99F
GROSSE ILE     CLOUDY    75  70  83 S10       30.02F
HILLSDALE      PTSUNNY   81  57  43 SW9G20    30.04F
HOWELL         SUNNY     83  61  46 SW10G16   30.00F

CITY           SKY/WX    TMP DP  RH WIND       PRES   REMARKS
JACKSON        MOSUNNY   82  60  47 SW17      30.02F
LAMBERTVILLE   CLOUDY    82  66  57 SW13      30.04F
LANSING        MOSUNNY   80  63  55 SW14G25   30.01S
LAPEER         FAIR      81  58  45 SW12G18   30.00F
MASON          MOSUNNY   80  62  54 SW12      30.01S
MONROE         CLOUDY    82  68  61 S14       30.03F
MT. CLEMENS    PTSUNNY   82  68  60 S14       30.01F
PONTIAC        CLOUDY    81  61  50 SW13      30.01F
PORT HOPE        N/A     81  63  54 SW8G20    29.95F
PORT HURON     CLOUDY    79  68  69 S12       30.02F
TRI CITIES     MOSUNNY   83  61  47 SW18G25   29.97F
MIDLAND        PTSUNNY   79  62  56 SW12G23   29.95F
TROY           CLOUDY    81  62  53 SW8       30.03F
SAGINAW HB     MOSUNNY   81  61  50 SW14      29.96F
$$
MIZ043>046-050>051-056>058-064>065-071>073-077>080-291800-
SOUTHWEST LOWER MICHIGAN

CITY           SKY/WX    TMP DP  RH WIND       PRES   REMARKS
BATTLE CREEK   MOSUNNY   79  64  60 SW15      30.02F
BENTON HARBOR  SUNNY     80  62  54 SW14G21   30.01F
BIG RAPIDS     PTSUNNY   75  60  58 SW14G22   29.96F
COLDWATER      PTSUNNY   81  63  54 W15G22    30.02F
FREMONT        PTSUNNY   76  58  53 SW21G31   29.97S
HOLLAND        SUNNY     80  59  48 SW20G28   30.01S
GRAND RAPIDS   PTSUNNY   83  60  45 SW18G25   29.99F
IONIA          PTSUNNY   81  58  45 SW14G24   29.99S
KALAMAZOO      MOSUNNY   80  60  50 SW16G22   30.01F
LUDINGTON      PTSUNNY   70  62  74 SW17G32   29.95S
MARSHALL       MOSUNNY   80  63  56 SW10G20   30.01F
MOUNT PLEASANT MOSUNNY   80  60  51 SW18      29.96F
MUSKEGON       PTSUNNY   74  60  61 S17G25    29.99S
SOUTH HAVEN    SUNNY     79  56  45 SW15G23   30.01S
$$
MIZ016>042-291800-
NORTHERN LOWER MICHIGAN

CITY           SKY/WX    TMP DP  RH WIND       PRES   REMARKS
ALPENA         HVY RAIN  76  64  66 W12G20    29.91S
BEAVER ISLAND  SUNNY     73  60  65 SW16      29.89F
BELLAIRE       SUNNY     80  56  43 SW8G17    29.90S
CADILLAC       PTSUNNY   75  56  50 S17G26    29.95S
CHARLEVOIX     MOSUNNY   78  59  53 SW14G22   29.92F
FRANKFORT      PTSUNNY   69  61  76 S15G26    29.91F
GAYLORD        PTSUNNY   78  57  48 SW15      29.92F
GRAYLING       MOSUNNY   80  57  46 S13G24    29.94S
HARBOR SPRINGS MOSUNNY   75  59  57 SW13G22   29.89S
HOUGHTON LAKE  MOSUNNY   79  57  46 SW16G25   29.95F
MANISTEE       PTSUNNY   73  57  56 S16G28    29.93S
OSCODA         CLOUDY    82  64  54 S21G28    29.93S
PELLSTON       SUNNY     80  57  45 SW17G26   29.89F
ROGERS CITY    MOSUNNY   82  59  46 S10G23    29.89F
TRAVERSE CITY  CLOUDY    80  56  43 S10G17    29.88F
$$
MIZ007>008-015-291800-
EASTERN UPPER MICHIGAN

CITY           SKY/WX    TMP DP  RH WIND       PRES   REMARKS
KINROSS          N/A     79  63  57 SW12G17   29.88S
MACKINAC ISLAN SUNNY     74  60  60 W10G18    29.88F
NEWBERRY       CLOUDY    68  63  85 S10G18    29.87F
S. S. MARIE    MOSUNNY   77  61  57 S17G25    29.86F
MUNISING         N/A     75  60  59 S23G30    29.79F
$$
MIZ004>006-011>014-085-291800-
CENTRAL UPPER MICHIGAN

CITY           SKY/WX    TMP DP  RH WIND       PRES   REMARKS
MANISTIQUE     FOG       55  54  97 S5        29.87S VSB 3/4
ESCANABA       CLOUDY    61  57  88 S10       29.83S
MENOMINEE      LGT RAIN  69  63  81 SW16      29.84S
SAWYER-GWINN   CLOUDY    63  59  88 W14       29.82S
$$
MIZ001>003-009>011-084-291800-
WESTERN UPPER MICHIGAN

CITY           SKY/WX    TMP DP  RH WIND       PRES   REMARKS
IRON MOUNTAIN  CLOUDY    66  62  87 S10       29.82F
HOUGHTON       PTSUNNY   63  56  78 W18       29.78S
COPPER HARBOR    N/A     50  48  93 N5        29.77R
IRONWOOD       CLOUDY    63  59  88 W14G22    29.81R
$$

ABBREVIATIONS USED IN REMARKS
   TC - TEMPERATURE IN CELSIUS
  WCI - WIND CHILL INDEX
   HX - HEAT INDEX
  VSB - VISIBILITY




USA.gov is the U.S. government's official web portal to all federal, state and local government web resources and services.